Hourly Data Report for September 24, 2017

All times are specified in Local Standard Time (LST). Add 1 hour to adjust for Daylight Saving Time where and when it is observed.

EDMUNDSTON
NEW BRUNSWICK

47°25'00.000" N
68°19'28.040" W
154.20 m
8101303
71590
ERM

Download Data

Hourly Data (September 2017)
Hourly Data Report for September 24, 2017
Temp Definition
°C
Dew Point Temp Definition
°C
Rel Hum Definition
%
Wind Dir Definition
10's deg

Wind Spd Definition
km/h
Visibility Definition
km
Stn Press Definition
kPa
Hmdx Definition


Wind Chill Definition


Weather Definition


TIME
00:00 11.3 10.4 94 33 2   99.82     LegendNANA
01:00 10.7 9.9 95 25 1   99.84     LegendNANA
02:00 11.8 11.1 96 32 7   99.79     LegendNANA
03:00 13.1 12.3 95 11 3   99.72     LegendNANA
04:00 14.0 13.3 95 9 5   99.67     LegendNANA
05:00 14.8 13.5 92 12 4   99.68     LegendNANA
06:00 15.4 13.5 89 6 3   99.65     LegendNANA
07:00 15.9 13.8 88 9 3   99.69     LegendNANA
08:00 16.5 14.4 87 9 2   99.70     LegendNANA
09:00 18.1 14.2 78 14 7   99.72     LegendNANA
10:00 19.6 15.3 76 12 5   99.68     LegendNANA
11:00 22.6 16.8 70 12 5   99.60 28   LegendNANA
12:00 23.7 17.7 69 24 3   99.65 29   LegendNANA
13:00 26.8 18.1 59 30 6   99.57 33   LegendNANA
14:00 27.9 18.1 55 30 10   99.54 34   LegendNANA
15:00 25.8 18.6 65 36 10   99.57 32   LegendNANA
16:00 25.8 18.8 65 34 9   99.59 32   LegendNANA
17:00 24.2 18.5 71 31 7   99.66 31   LegendNANA
18:00 22.9 18.1 75 32 6   99.71 29   LegendNANA
19:00 19.6 17.3 87 34 9   99.78     LegendNANA
20:00 18.6 16.1 85 34 2   99.89     LegendNANA
21:00 18.1 15.5 85 28 1   99.92     LegendNANA
22:00 15.0 13.4 90 26 3   99.97     LegendNANA
23:00 13.9 12.8 93   0   100.00     LegendNANA

Notes on Data Quality.

Legend

  • E = Estimated
  • M = Missing
  • NA = Not Available
  • ‡ = Partner data that is not subject to review by the National Climate Archives
Date modified: